Regional Weather Roundup
Issued by NWS

Home | Current Version | Previous Version | Graphics & Text | Print | Product List | Glossary On
Versions: 1 2 3 4 5 6 7 8 9 10 11 12 13 14 15 16 17 18 19 20 21 22 23 24 25 26 27 28 29 30 31 32 33 34 35 36 37 38 39 40 41 42 43 44 45 46 47 48 49 50
000
ASUS43 KFSD 250002
RWRSD

WEATHER ROUNDUP FOR SOUTH DAKOTA
NATIONAL WEATHER SERVICE SIOUX FALLS SD
700 PM CDT WED AUG 24 2016

NOTE: "FAIR" INDICATES FEW OR NO CLOUDS BELOW 12,000 FEET WITH NO
SIGNIFICANT WEATHER AND/OR OBSTRUCTIONS TO VISIBILITY.


SDZ001>005-009-010-012>017-250100-
NORTHWEST AND NORTH CENTRAL SOUTH DAKOTA

CITY           SKY/WX    TMP DP  RH WIND       PRES   REMARKS
BUFFALO          N/A     70  42  36 NW28      30.07S
FAITH            N/A     74  44  34 NW16G25   30.09S
MOBRIDGE       MOSUNNY   80  41  24 NW13      30.01R
$$

SDZ012>016-024>037-041>051-057-063-072>074-250100-
SOUTHWEST AND SOUTH CENTRAL SOUTH DAKOTA

CITY           SKY/WX    TMP DP  RH WIND       PRES   REMARKS
RAPID CTY ARPT CLOUDY    71  45  39 N13       30.15R
PIERRE         PTSUNNY   77  47  34 NW9       30.03F
CUSTER         CLOUDY    63  38  39 E10       30.24R
ELLSWORTH AFB  MOSUNNY   73  44  35 N15       30.15R
PHILIP         SUNNY     78  47  33 NW8       30.08S
PINE RIDGE     MOSUNNY   73  45  36 CALM      30.15R
WINNER         FAIR      72  55  55 S3        30.10F
$$

SDZ004>011-016>023-039-040-250100-
NORTHEAST SOUTH DAKOTA

CITY           SKY/WX    TMP DP  RH WIND       PRES   REMARKS
ABERDEEN       MOSUNNY   77  49  37 W9G20     30.00S
WATERTOWN      PTSUNNY   71  54  54 W7        30.02F
BROOKINGS      CLOUDY    70  58  65 SW5       30.04R
$$

SDZ017-020-022-023-036>040-048>070-250100-
SOUTHEAST SOUTH DAKOTA

CITY           SKY/WX    TMP DP  RH WIND       PRES   REMARKS
SIOUX FALLS    CLOUDY    72  59  63 W3        30.05F
HURON          CLOUDY    73  54  51 N6        30.00F
CHAMBERLAIN    CLOUDY    73  58  60 CALM      30.07S
MITCHELL       CLOUDY    72  58  61 S3        30.05R
YANKTON        CLOUDY    73  55  53 CALM      30.05S
$$

ABBREVIATIONS USED IN REMARKS
   TC - TEMPERATURE IN CELSIUS
  WCI - WIND CHILL INDEX
   HX - HEAT INDEX
  VSB - VISIBILITY





USA.gov is the U.S. government's official web portal to all federal, state and local government web resources and services.